Regional Weather Roundup
Issued by NWS

Home | Current Version | Previous Version | Graphics & Text | Print | Product List | Glossary On
Versions: 1 2 3 4 5 6 7 8 9 10 11 12 13 14 15 16 17 18 19 20 21 22 23 24 25 26 27 28 29 30 31 32 33 34 35 36 37 38 39 40 41 42 43 44 45 46 47 48 49 50
000
ASUS43 KFSD 040710
RWRSD

WEATHER ROUNDUP FOR SOUTH DAKOTA
NATIONAL WEATHER SERVICE SIOUX FALLS SD
200 AM CDT TUE AUG 04 2015

NOTE: "FAIR" INDICATES FEW OR NO CLOUDS BELOW 12,000 FEET WITH NO
SIGNIFICANT WEATHER AND/OR OBSTRUCTIONS TO VISIBILITY.


SDZ001>005-009-010-012>017-040800-
NORTHWEST AND NORTH CENTRAL SOUTH DAKOTA

CITY           SKY/WX    TMP DP  RH WIND       PRES   REMARKS
BUFFALO          N/A     67  53  61 SE9       29.92R
FAITH            N/A     68  52  56 SE12      29.97R
MOBRIDGE       PTCLDY    64  55  72 E9        29.94F
$$

SDZ012>016-024>037-041>051-057-063-072>074-040800-
SOUTHWEST AND SOUTH CENTRAL SOUTH DAKOTA

CITY           SKY/WX    TMP DP  RH WIND       PRES   REMARKS
RAPID CTY ARPT CLOUDY    69  60  73 N6        29.98R
PIERRE         MOCLDY    65  57  75 E9        29.93F
CUSTER         PTCLDY    62  54  74 NE6       30.09S
ELLSWORTH AFB  CLOUDY    71  59  65 N10       29.98S
PHILIP         CLOUDY    74  60  61 SE14      29.93S
PINE RIDGE     MOCLDY    71  61  70 E6        29.93F
SPEARFISH      FAIR      68  57  68 E3        29.98F
WINNER         LGT RAIN  69  62  78 SE8       29.95F
$$

SDZ004>011-016>023-039-040-040800-
NORTHEAST SOUTH DAKOTA

CITY           SKY/WX    TMP DP  RH WIND       PRES   REMARKS
ABERDEEN       CLEAR     57  51  80 E3        29.96F
WATERTOWN      CLEAR     59  51  75 S3        29.98F
BROOKINGS      CLEAR     55  52  88 CALM      30.00F
SISSETON         N/A     53  50  89 W5        29.96F
$$

SDZ017-020-022-023-036>040-048>070-040800-
SOUTHEAST SOUTH DAKOTA

CITY           SKY/WX    TMP DP  RH WIND       PRES   REMARKS
SIOUX FALLS    CLEAR     61  59  93 CALM      29.98F
HURON          CLEAR     63  56  78 SE7       29.95F
CHAMBERLAIN    PTCLDY    64  57  77 SE6       29.96S
MITCHELL       CLEAR     62  58  86 SE5       29.96F
YANKTON        PTCLDY    64  63  94 E7        29.94F
$$

ABBREVIATIONS USED IN REMARKS
   TC - TEMPERATURE IN CELSIUS
  WCI - WIND CHILL INDEX
   HX - HEAT INDEX
  VSB - VISIBILITY




USA.gov is the U.S. government's official web portal to all federal, state and local government web resources and services.